[Date Prev][Date Next][Thread Prev][Thread Next] - [Date Index][Thread Index][Author Index]
MIR & ISS Keps 3-6
- Subject: [sarex] MIR & ISS Keps 3-6
- From: "Dr Dave Larsen [ PhD ]" <doc@xxxxxxxxxxx>
- Date: Sat, 6 Mar 1999 05:17:42 -0800
MIR
1 16609U 86017A 99065.17111877 .00038074 00000-0 28687-3 0 2838
2 16609 51.6620 151.8755 0012349 206.4954 153.5416 15.72023069745191
ISS
1 25544U 98067A 99065.18706318 .00020927 00000-0 27670-3 0 3701
2 25544 51.5946 356.3067 0004508 182.1139 177.9840 15.58285350 16526
----
Via the sarex mailing list at AMSAT.ORG courtesy of AMSAT-NA.
To unsubscribe, send "unsubscribe sarex" to Majordomo@amsat.org
AMSAT Home